Location: ???????
(55.3754°N, 39.3545°E)
Time: 21:32:52
(UTC+00:00)

SL-16 R/B - Pass Details

Date: 14 April 2026
Orbit: 839 x 849 km, 71.0° (Epoch: 13 May)

Event Time Altitude Azimuth Distance (km) Brightness Sun altitude
Exits shadow 17:49:41 10° 95° (E) 2,452 4.1 -11.4°
Maximum altitude 17:49:53 10° 93° (E) 2,451 4.1 -11.4°
Drops below altitude 10° 17:50:35 10° 86° (E) 2,469 4.2 -11.5°
Sets 17:55:45 0° 46° (NE) 3,416 5.3 -12.1°
